Wind_Speed
12 12 12 12 12 12 12 12 12 12 12 12 13 13 14 14 14 14 14 15 15 15 16 17 18 19 20 22 22 23 24 25 26 27 28 29 31 32
15 15 15 15 15 16 16 16 15 15 15 15 15 16 16 17 17 17 17 17 18 18 18 19 19 20 21 22 23 25 25 26 27 28 29 30 31 32
19 19 18 18 18 18 19 19 19 19 19 18 18 19 19 19 20 20 20 20 20 21 21 21 21 22 22 23 24 25 26 27 28 29 30 31 32 33
22 22 21 21 21 21 21 22 22 22 22 22 22 22 22 22 23 23 23 23 23 23 24 24 24 24 25 25 26 26 27 28 29 30 31 31 33 34
24 24 24 24 24 24 24 24 25 25 25 25 25 25 25 25 25 26 26 26 26 26 27 27 27 28 28 28 28 28 29 30 30 31 32 32 33 34
27 27 27 27 27 28 27 28 28 28 28 28 28 28 28 28 28 29 29 29 30 30 30 30 30 31 31 31 31 31 31 32 32 33 33 34 34 35
30 30 30 30 30 31 31 31 31 31 31 31 30 31 31 32 32 32 32 32 33 33 33 33 34 34 34 34 33 34 34 34 34 35 35 35 36 36
32 32 32 33 34 34 35 35 35 34 34 34 34 34 35 35 35 35 35 35 35 36 36 36 37 37 37 37 37 37 37 36 36 36 36 36 37 37
33 34 35 35 36 37 37 37 37 37 37 38 38 38 38 39 40 39 40 40 39 40 41 39 40 40 40 40 40 40 39 39 39 38 38 38 39 38
35 35 35 36 37 38 38 38 38 39 40 41 41 41 42 42 43 43 44 44 44 44 45 44 43 44 44 43 43 43 42 42 41 41 41 41 40 40
36 36 38 39 39 40 41 41 40 41 43 44 44 44 45 46 47 47 47 48 46 46 47 47 46 47 47 46 46 46 45 45 44 43 43 43 43 43
37 38 38 40 41 42 43 43 43 43 44 45 46 46 47 48 50 51 51 52 51 50 50 51 51 51 50 49 49 49 48 48 47 46 45 44 45 44
38 39 40 40 41 43 44 45 45 46 47 48 50 50 51 52 53 55 56 57 56 55 54 55 55 55 55 53 52 52 51 50 49 48 47 46 46 45
39 40 41 43 44 45 46 48 49 51 52 53 54 54 55 57 58 59 60 61 61 61 60 61 60 60 59 58 56 55 54 53 52 51 50 49 47 47
42 44 45 46 47 49 51 53 55 56 57 58 59 60 61 62 63 64 64 64 64 64 64 64 64 63 63 61 59 57 56 55 55 53 52 51 50 49
46 48 49 51 52 53 55 56 58 60 61 62 63 64 64 65 66 67 67 67 67 66 65 66 65 64 63 62 61 58 57 55 55 55 54 53 51 50
50 52 53 54 55 56 57 59 60 61 62 63 64 64 65 66 67 67 68 68 67 66 65 65 65 65 64 63 62 59 57 56 55 54 54 53 51 51
53 54 55 55 56 58 59 60 61 62 62 63 63 64 64 65 65 64 64 64 64 63 62 61 62 62 63 62 61 59 58 56 55 54 53 52 51 50
54 55 56 57 57 58 59 59 60 61 61 61 61 61 60 60 58 57 57 57 57 56 56 56 56 58 59 59 57 59 58 56 55 54 53 52 49 48
54 55 55 55 55 55 56 57 57 57 57 56 55 54 53 53 52 52 52 52 52 51 50 50 51 52 52 52 53 54 55 55 55 54 52 52 50 49
52 52 51 51 52 52 52 52 51 50 49 48 47 47 46 47 47 47 47 47 46 45 45 45 46 47 48 48 47 48 49 52 53 52 51 51 49 47
48 47 47 47 46 45 44 43 42 41 40 40 40 41 42 41 41 40 40 39 40 39 39 39 40 41 42 42 42 42 44 46 48 49 49 48 47 46
43 42 42 41 40 39 37 36 35 34 34 35 35 36 35 35 35 34 34 33 33 33 33 34 34 35 36 36 37 37 38 40 42 44 45 45 45 44
Wind_Direction
283 289 293 296 298 298 297 296 296 296 296 295 292 291 290 290 290 289 288 286 284 282 279 276 274 271 269 266 265 264 263 261 259 258 256 254 253 253
278 282 286 288 291 293 294 293 291 290 290 290 288 287 286 285 285 284 284 284 284 283 281 278 276 274 273 271 268 266 264 263 262 261 259 257 255 254
277 279 282 285 287 289 289 290 289 288 287 286 285 285 284 283 281 281 281 281 281 281 280 279 278 275 273 272 271 269 266 264 263 263 262 260 258 256
275 277 279 281 282 284 286 286 286 286 286 286 284 283 282 282 281 279 278 278 279 279 279 278 277 276 274 272 271 270 268 266 265 264 263 261 260 258
274 275 277 278 279 281 282 282 283 283 284 284 284 283 282 281 281 279 278 277 278 278 278 277 277 275 274 273 272 271 269 268 266 265 264 263 262 261
273 274 275 276 278 279 280 281 281 282 282 282 282 282 281 281 280 279 278 278 278 278 277 276 276 275 274 273 272 271 270 269 267 266 264 263 263 262
272 273 274 275 277 278 279 279 280 281 281 280 280 280 280 280 279 277 277 278 279 278 277 276 275 274 274 273 272 271 270 269 268 267 265 264 263 263
272 273 275 275 276 278 278 279 279 279 279 279 278 278 278 279 278 278 277 277 277 277 276 275 273 272 272 272 272 271 270 268 268 267 266 264 263 262
271 274 274 275 275 276 277 278 278 278 278 277 276 277 276 277 277 278 277 276 275 275 275 274 272 271 270 270 270 270 270 269 268 266 265 264 263 263
272 274 275 276 276 276 277 277 277 277 277 276 276 276 276 277 277 277 277 276 276 275 274 272 271 270 269 269 269 268 268 268 267 266 265 264 263 263
270 273 275 274 274 275 275 275 275 275 275 276 276 277 277 277 277 277 277 276 275 275 274 273 271 269 268 268 268 268 267 266 266 265 264 263 263 262
271 273 274 274 274 274 275 275 275 275 275 276 277 277 277 277 277 277 277 276 275 274 274 274 272 270 268 268 267 267 266 265 264 263 263 262 262 262
273 274 275 276 276 276 276 276 275 275 275 276 276 276 275 275 276 276 275 275 275 274 273 272 271 270 269 268 266 266 265 264 264 262 262 261 261 261
275 274 276 277 277 277 277 277 277 277 277 276 276 275 275 274 275 275 274 275 274 274 273 272 271 270 269 267 266 264 264 263 262 261 261 261 261 260
277 278 278 278 278 278 278 278 278 278 278 277 276 276 275 275 275 275 274 274 273 273 272 272 271 269 268 267 264 263 261 260 259 258 258 259 259 259
280 280 281 281 280 280 279 279 278 278 278 277 277 277 276 276 275 275 274 273 272 271 270 270 269 268 267 265 264 262 261 259 258 257 257 257 257 257
282 283 282 282 281 281 281 281 280 280 280 279 278 278 277 277 276 276 275 274 273 272 270 268 267 265 264 263 261 261 260 258 256 255 255 255 255 256
283 283 283 283 283 283 283 283 282 282 281 281 280 280 279 278 277 276 275 274 274 273 271 268 266 264 262 261 260 258 257 256 254 254 254 253 253 253
285 285 285 285 285 284 284 283 282 281 281 281 281 281 281 280 279 278 276 274 274 273 271 269 267 265 262 259 256 256 255 254 253 253 252 251 251 251
287 287 287 287 287 286 286 285 284 283 283 282 282 282 282 281 279 278 277 275 274 273 271 269 267 265 263 260 256 253 253 253 252 251 250 251 250 250
289 289 289 289 288 288 288 288 286 285 285 285 285 285 284 283 281 280 279 276 274 273 272 270 267 265 263 260 257 253 251 251 250 249 249 249 250 250
291 290 290 291 291 291 291 290 289 287 287 287 288 288 286 285 284 282 280 277 275 274 273 271 268 266 263 260 257 253 251 250 250 248 249 249 249 249
292 292 292 293 293 293 293 293 293 291 290 291 292 293 291 289 287 284 282 279 276 274 274 272 268 266 263 260 257 253 251 250 249 249 248 247 248 248
Height
5864 5863 5862 5862 5861 5860 5859 5859 5858 5857 5856 5855 5854 5853 5852 5851 5850 5849 5849 5848 5847 5847 5846 5845 5844 5844 5843 5843 5843 5843 5843 5843 5843 5843 5844 5844 5845 5846
5859 5859 5858 5857 5856 5856 5855 5854 5853 5853 5851 5850 5849 5848 5847 5846 5845 5844 5844 5843 5842 5841 5840 5840 5839 5838 5837 5837 5836 5836 5836 5836 5836 5836 5836 5837 5837 5838
5854 5854 5853 5852 5851 5850 5849 5848 5848 5847 5846 5845 5844 5843 5842 5841 5840 5839 5838 5837 5836 5835 5834 5833 5833 5832 5831 5830 5830 5829 5829 5828 5828 5828 5829 5829 5829 5830
5848 5848 5847 5846 5845 5844 5843 5842 5841 5840 5840 5838 5837 5836 5835 5834 5833 5832 5831 5830 5829 5828 5827 5826 5825 5824 5824 5823 5822 5822 5821 5821 5820 5820 5820 5821 5821 5821
5842 5841 5840 5839 5838 5837 5836 5835 5834 5833 5832 5831 5830 5829 5828 5827 5825 5824 5823 5822 5821 5820 5819 5818 5817 5816 5815 5815 5814 5813 5813 5812 5812 5812 5812 5812 5812 5812
5834 5833 5832 5831 5830 5829 5828 5827 5826 5825 5824 5823 5822 5820 5819 5818 5817 5816 5815 5814 5813 5812 5811 5809 5808 5807 5806 5806 5805 5804 5804 5803 5803 5802 5802 5802 5802 5802
5825 5824 5823 5822 5821 5820 5819 5818 5817 5816 5815 5814 5813 5812 5810 5809 5808 5807 5806 5804 5803 5802 5801 5800 5799 5798 5797 5796 5795 5795 5794 5793 5793 5792 5792 5792 5792 5792
5816 5815 5814 5813 5812 5811 5810 5809 5808 5806 5805 5803 5802 5801 5800 5798 5797 5796 5796 5795 5794 5792 5790 5790 5788 5787 5786 5785 5784 5783 5783 5782 5782 5781 5781 5781 5781 5781
5806 5805 5804 5803 5802 5801 5800 5799 5798 5796 5794 5792 5791 5790 5789 5787 5785 5785 5783 5783 5782 5780 5779 5778 5776 5776 5774 5773 5773 5772 5771 5771 5770 5770 5770 5770 5770 5770
5796 5795 5794 5792 5791 5789 5788 5788 5786 5784 5782 5780 5779 5778 5776 5775 5773 5771 5770 5769 5769 5767 5765 5765 5764 5763 5761 5761 5760 5759 5759 5758 5758 5757 5757 5757 5757 5758
5785 5783 5782 5781 5779 5777 5776 5776 5774 5772 5769 5767 5766 5765 5763 5761 5758 5757 5755 5754 5754 5753 5750 5749 5749 5748 5747 5747 5746 5745 5745 5745 5745 5744 5744 5744 5744 5745
5773 5771 5770 5769 5767 5765 5764 5762 5761 5759 5756 5754 5753 5751 5749 5746 5744 5741 5739 5738 5737 5738 5736 5733 5732 5731 5732 5732 5731 5730 5730 5730 5730 5730 5730 5730 5730 5731
5761 5760 5758 5756 5754 5752 5750 5748 5746 5744 5742 5740 5738 5736 5734 5731 5728 5725 5723 5720 5719 5720 5719 5716 5715 5713 5713 5715 5715 5714 5713 5714 5715 5715 5716 5716 5716 5717
5749 5747 5745 5743 5741 5738 5736 5733 5731 5728 5726 5724 5721 5719 5717 5714 5711 5708 5705 5702 5700 5700 5699 5696 5695 5694 5693 5694 5696 5697 5696 5697 5698 5699 5700 5701 5701 5703
5736 5734 5731 5729 5726 5723 5720 5717 5714 5711 5708 5705 5702 5700 5697 5694 5690 5687 5684 5681 5680 5679 5677 5674 5673 5672 5672 5673 5675 5677 5678 5679 5680 5682 5683 5685 5686 5687
5722 5719 5716 5713 5709 5706 5702 5698 5695 5691 5687 5684 5681 5678 5675 5672 5668 5665 5662 5659 5657 5657 5655 5652 5651 5650 5650 5651 5653 5656 5659 5661 5663 5664 5666 5668 5670 5672
5706 5703 5699 5695 5691 5687 5683 5678 5674 5670 5666 5662 5659 5656 5652 5649 5646 5642 5638 5636 5634 5634 5634 5631 5628 5627 5628 5630 5633 5636 5639 5641 5644 5646 5648 5651 5654 5656
5689 5685 5681 5676 5672 5668 5663 5659 5654 5649 5645 5640 5637 5633 5630 5626 5623 5619 5615 5612 5611 5610 5610 5609 5606 5605 5606 5609 5613 5616 5619 5622 5625 5627 5629 5633 5638 5641
5671 5666 5662 5657 5653 5648 5643 5638 5634 5629 5624 5619 5615 5611 5607 5604 5600 5598 5594 5591 5590 5589 5588 5587 5586 5584 5585 5589 5595 5595 5598 5602 5605 5609 5612 5616 5621 5625
5653 5648 5643 5638 5633 5628 5623 5618 5613 5608 5603 5599 5595 5591 5587 5584 5581 5578 5575 5573 5571 5570 5570 5569 5568 5566 5566 5570 5574 5578 5580 5583 5587 5592 5596 5600 5605 5608
5635 5630 5625 5620 5615 5610 5605 5600 5594 5590 5586 5582 5578 5574 5570 5566 5563 5560 5558 5556 5554 5553 5553 5553 5552 5550 5550 5552 5556 5561 5564 5566 5570 5575 5580 5584 5588 5592
5618 5613 5608 5603 5599 5594 5589 5584 5579 5575 5571 5568 5564 5560 5556 5552 5548 5546 5543 5542 5540 5539 5538 5538 5537 5536 5537 5538 5541 5545 5549 5552 5555 5559 5564 5569 5572 5578
5603 5598 5594 5589 5584 5580 5576 5572 5567 5564 5560 5556 5552 5548 5544 5539 5536 5533 5531 5529 5528 5527 5526 5526 5525 5525 5525 5526 5529 5532 5535 5538 5541 5546 5550 5555 5559 5563